Погода в Тимимуне

Алжир     29°15′13″N   0°18′22″E
темп.,
°C
ветер,
м/с
пор.,
м/с
влажн.,
%
обл.,
%
осадки,
мм/ч
давл.,
гПа
погр.,
м
11 мая, вт
вт1101:00+29ююз4490 0.0 100827
04:00+28юз33110 0.0 100817
07:00+27зсз23160 0.0 101014
10:00+29св99270 0.0 1013729
13:00+34св76170 0.0 10121338
16:00+35св65140 0.0 10111879
19:00+34св78150 0.0 1011609
22:00+31ссв711200 0.0 1013237
12 мая, ср
ср1201:00+28св712230 0.0 1014256
04:00+27св814190 0.0 1013330
07:00+25всв1016190 0.0 1015476
10:00+29в1011160 0.0 1015894
13:00+34в77130 0.0 10141569
16:00+36всв76110 0.0 10112293
19:00+34всв79120 0.0 1011489
22:00+31всв813160 0.0 1012296
13 мая, чт
чт1301:00+28всв59200 0.0 1012165
04:00+26всв510220 0.0 1012161
07:00+25всв510225 0.0 1013211
10:00+31в78125 0.0 1013717
13:00+36в66937 0.0 10111710
16:00+37в44841 0.0 10082806
19:00+36св45823 0.0 1008112
22:00+32св51010100 0.0 1009128
14 мая, пт
пт1401:00+30в51013100 0.0 1009176
04:00+28в591590 0.0 1008138
07:00+27в5121716 0.0 1009221
10:00+33вюв7911100 0.0 1009708
13:00+38вюв657100 0.0 10082420
16:00+39в45661 0.0 10063847
19:00+38св587100 0.0 1006160
22:00+35св7139100 0.0 1007243
15 мая, сб
сб1501:00+33в71410100 0.0 1007267
04:00+32в81611100 0.0 1007323
07:00+31в91610100 0.0 1008391
10:00+36в10147100 0.0 10101003
13:00+40вюв996100 0.0 10092861
16:00+42вюв495100 0.0 10064570
19:00+40ю695100 0.0 1006189
22:00+35ююз468100 0.0 100975